KC0AFB Weather Reports


Display with metric or nautical units.
time (UTC)temp
F
wind
direction
speed
MPH
gust
MPH
rain 1hr
in
rain 24hr
in
rain mn
in
humidity
%
barometer
mb
20260509205138 57 336 11.0 13.0 0.00 0.03 0.03 40 1015.8
20260509204629 57 311 9.0 13.0 0.00 0.03 0.03 41 1016.0
20260509204126 58 306 8.0 10.0 0.00 0.03 0.03 42 1015.9
20260509203622 57 324 13.0 16.0 0.00 0.03 0.03 41 1016.0
20260509203121 57 291 12.0 13.0 0.00 0.03 0.03 41 1016.0
20260509202620 57 286 6.0 7.0 0.00 0.03 0.03 44 1016.3
20260509202115 56 276 5.0 6.0 0.00 0.03 0.03 42 1016.2
20260509201610 56 336 15.0 17.0 0.00 0.03 0.03 40 1015.7
20260509201108 56 328 10.0 11.0 0.00 0.03 0.03 40 1016.1
20260509200603 56 280 11.0 15.0 0.00 0.03 0.03 41 1016.1
20260509200059 57 317 13.0 15.0 0.00 0.03 0.03 41 1016.2
20260509195555 56 18 5.0 6.0 0.00 0.03 0.03 44 1016.0
20260509195050 57 340 12.0 13.0 0.00 0.03 0.03 42 1016.3
20260509194549 56 280 10.0 13.0 0.00 0.03 0.03 43 1016.2
20260509194047 56 303 9.0 11.0 0.00 0.03 0.03 45 1015.9
20260509193542 55 279 4.0 5.0 0.00 0.03 0.03 44 1015.9
20260509193039 56 306 14.0 21.0 0.00 0.03 0.03 41 1016.1
20260509192536 57 14 7.0 9.0 0.00 0.03 0.03 47 1016.2
20260509192031 56 342 10.0 11.0 0.00 0.03 0.03 45 1016.0
20260509191525 55 320 3.0 3.0 0.00 0.03 0.03 44 1016.1
20260509191021 55 267 7.0 8.0 0.00 0.03 0.03 49 1016.0
20260509190518 55 348 9.0 10.0 0.00 0.03 0.03 46 1016.1
20260509190016 55 350 4.0 6.0 0.00 0.03 0.03 46 1015.9
20260509185513 54 302 10.0 11.0 0.00 0.03 0.03 47 1016.0
20260509185009 55 5 4.0 6.0 0.00 0.03 0.03 42 1016.1
20260509184508 55 302 7.0 8.0 0.00 0.03 0.03 48 1016.2
20260509184004 55 296 7.0 8.0 0.00 0.03 0.03 47 1016.3
20260509183500 54 323 3.0 5.0 0.00 0.03 0.03 46 1016.3
20260509182956 54 325 8.0 11.0 0.00 0.03 0.03 48 1016.0
20260509182452 54 226 3.0 3.0 0.00 0.03 0.03 51 1016.2
20260509181949 54 223 5.0 7.0 0.00 0.03 0.03 49 1016.1
20260509181447 53 4 6.0 7.0 0.00 0.03 0.03 50 1016.2
20260509180945 53 17 4.0 5.0 0.00 0.03 0.03 46 1016.2
20260509180440 53 7 7.0 10.0 0.00 0.03 0.03 50 1016.2
20260509175936 53 301 8.0 9.0 0.00 0.03 0.03 47 1016.2
20260509175427 53 305 7.0 10.0 0.00 0.03 0.03 48 1016.3
20260509174923 53 281 5.0 7.0 0.00 0.03 0.03 48 1016.3
20260509174420 52 345 2.0 2.0 0.00 0.03 0.03 48 1016.1
20260509173915 51 304 7.0 8.0 0.00 0.03 0.03 51 1016.2
20260509173410 53 278 11.0 13.0 0.00 0.03 0.03 50 1016.2
20260509172906 52 324 5.0 6.0 0.00 0.03 0.03 50 1016.2
20260509172403 52 309 9.0 11.0 0.00 0.03 0.03 52 1016.1
20260509171859 51 312 6.0 7.0 0.00 0.03 0.03 51 1016.1
20260509171355 52 21 4.0 5.0 0.00 0.03 0.03 52 1016.1
20260509170852 51 336 7.0 9.0 0.00 0.03 0.03 53 1016.1
20260509170347 51 320 6.0 8.0 0.00 0.03 0.03 55 1016.3
20260509165841 51 313 5.0 6.0 0.00 0.03 0.03 54 1016.1
20260509165331 51 346 6.0 7.0 0.00 0.03 0.03 53 1016.2
20260509164827 51 253 7.0 10.0 0.00 0.03 0.03 52 1016.1
20260509164324 50 342 8.0 9.0 0.00 0.03 0.03 51 1016.0
20260509163820 50 298 5.0 6.0 0.00 0.03 0.03 56 1015.9
20260509163316 50 332 5.0 6.0 0.00 0.03 0.03 56 1015.8
20260509162815 50 350 6.0 7.0 0.00 0.03 0.03 53 1015.9
20260509162309 50 325 4.0 5.0 0.00 0.03 0.03 53 1016.0
20260509161805 50 296 7.0 8.0 0.00 0.03 0.03 53 1016.0
20260509161301 50 286 6.0 7.0 0.00 0.03 0.03 52 1015.8
20260509160756 50 290 5.0 7.0 0.00 0.03 0.03 55 1015.8
20260509160253 49 330 5.0 6.0 0.00 0.03 0.03 56 1015.9
20260509155748 49 282 3.0 5.0 0.00 0.03 0.03 53 1016.0
20260509155245 49 38 3.0 3.0 0.00 0.03 0.03 52 1015.8
20260509154741 49 42 5.0 5.0 0.00 0.03 0.03 57 1015.9
20260509154238 48 14 2.0 2.0 0.00 0.03 0.03 55 1015.9
20260509153736 48 0 4.0 5.0 0.00 0.03 0.03 56 1015.9
20260509153231 49 36 3.0 5.0 0.00 0.03 0.03 56 1015.6
20260509152728 48 4 2.0 2.0 0.00 0.03 0.03 56 1015.7
20260509152219 48 352 7.0 8.0 0.00 0.03 0.03 55 1015.4
20260509151716 47 14 3.0 3.0 0.00 0.03 0.03 54 1015.5
20260509151213 47 27 3.0 3.0 0.00 0.03 0.03 54 1015.8
20260509150710 47 54 1.0 1.0 0.00 0.03 0.03 58 1015.4
20260509150209 47 28 4.0 5.0 0.00 0.03 0.03 61 1015.5
20260509145704 46 42 4.0 5.0 0.00 0.03 0.03 58 1015.4
20260509145200 47 28 2.0 3.0 0.00 0.03 0.03 63 1015.5
20260509144656 46 62 1.0 2.0 0.00 0.03 0.03 64 1015.3
20260509144154 46 52 5.0 5.0 0.00 0.03 0.03 68 1015.2
20260509143651 45 315 3.0 5.0 0.00 0.03 0.03 72 1015.3
20260509143149 45 345 6.0 8.0 0.00 0.03 0.03 75 1015.3
20260509142644 45 327 6.0 7.0 0.00 0.03 0.03 76 1015.2
20260509142141 44 14 4.0 5.0 0.00 0.03 0.03 78 1015.1
20260509141636 44 323 3.0 3.0 0.00 0.03 0.03 76 1015.2
20260509141133 44 345 3.0 3.0 0.00 0.03 0.03 77 1015.0
20260509140630 43 11 3.0 5.0 0.00 0.03 0.03 78 1015.0
20260509140128 43 283 1.0 1.0 0.00 0.03 0.03 83 1015.0
20260509135625 43 308 3.0 3.0 0.00 0.03 0.03 84 1014.9
20260509135123 42 16 3.0 5.0 0.00 0.03 0.03 85 1014.4
20260509134619 42 328 2.0 2.0 0.00 0.03 0.03 86 1014.6
20260509134117 42 335 3.0 3.0 0.00 0.03 0.03 86 1014.6
20260509133614 42 342 3.0 3.0 0.00 0.03 0.03 87 1014.3
20260509133111 42 344 3.0 3.0 0.00 0.03 0.03 87 1014.3
20260509132609 41 336 3.0 3.0 0.00 0.03 0.03 88 1014.2
20260509132108 41 312 3.0 3.0 0.00 0.03 0.03 88 1014.1
20260509131603 41 316 3.0 3.0 0.00 0.03 0.03 88 1014.3
20260509131100 40 316 3.0 3.0 0.00 0.03 0.03 89 1014.2
20260509130556 40 310 3.0 3.0 0.00 0.03 0.03 89 1013.8
20260509130053 39 325 3.0 3.0 0.00 0.03 0.03 89 1013.7
20260509125549 39 313 4.0 5.0 0.00 0.03 0.03 89 1013.6
20260509125046 38 313 3.0 3.0 0.00 0.03 0.03 90 1013.6
20260509124542 38 329 2.0 2.0 0.00 0.03 0.03 90 1013.6
20260509124040 37 304 2.0 2.0 0.00 0.03 0.03 90 1013.5
20260509123538 37 289 2.0 2.0 0.00 0.03 0.03 90 1013.4
20260509123034 37 311 2.0 2.0 0.00 0.03 0.03 90 1013.0
20260509122530 36 321 3.0 3.0 0.00 0.03 0.03 90 1013.3
20260509122027 36 327 3.0 3.0 0.00 0.03 0.03 90 1012.7
20260509121524 36 292 2.0 2.0 0.00 0.03 0.03 90 1012.9
20260509121021 36 323 3.0 3.0 0.00 0.03 0.03 90 1012.9
20260509120520 36 309 3.0 3.0 0.00 0.03 0.03 90 1012.5
20260509120017 36 320 3.0 3.0 0.00 0.03 0.03 90 1012.6
20260509115514 36 338 3.0 5.0 0.00 0.03 0.03 90 1012.3
20260509115012 36 338 4.0 5.0 0.00 0.03 0.03 90 1012.4
20260509114510 36 318 5.0 7.0 0.00 0.03 0.03 91 1012.3
20260509114009 36 342 3.0 3.0 0.00 0.03 0.03 91 1011.9
20260509113506 36 313 2.0 2.0 0.00 0.03 0.03 91 1011.9
20260509113004 36 8 3.0 3.0 0.00 0.03 0.03 91 1011.8
20260509112500 36 359 3.0 3.0 0.00 0.03 0.03 91 1011.9
20260509111956 36 8 3.0 3.0 0.00 0.03 0.03 91 1011.7
20260509111454 36 9 4.0 5.0 0.00 0.03 0.03 91 1011.7
20260509110951 36 12 4.0 5.0 0.00 0.03 0.03 91 1011.6
20260509110447 37 8 2.0 3.0 0.00 0.03 0.03 91 1011.7
20260509105945 37 351 3.0 3.0 0.00 0.03 0.03 90 1011.6
20260509105444 37 344 4.0 5.0 0.00 0.03 0.03 90 1011.3
20260509104940 37 5 2.0 2.0 0.00 0.03 0.03 90 1011.2
20260509104437 37 358 3.0 5.0 0.00 0.03 0.03 90 1011.4
20260509103934 38 3 3.0 3.0 0.00 0.03 0.03 90 1011.3
20260509103432 38 8 3.0 3.0 0.00 0.03 0.03 90 1011.2
20260509102930 38 337 3.0 3.0 0.00 0.03 0.03 90 1011.3
20260509102427 38 358 3.0 3.0 0.00 0.03 0.03 90 1011.2
20260509101923 38 19 5.0 6.0 0.00 0.03 0.03 90 1011.1
20260509101420 38 352 4.0 5.0 0.00 0.03 0.03 90 1010.8
20260509100917 38 350 4.0 5.0 0.00 0.03 0.03 90 1010.9
20260509100414 38 13 3.0 5.0 0.00 0.03 0.03 90 1010.8
20260509095911 38 352 3.0 5.0 0.00 0.03 0.03 90 1010.9
20260509095408 38 349 4.0 6.0 0.00 0.03 0.03 90 1010.9
20260509094905 38 357 4.0 5.0 0.00 0.03 0.03 90 1010.7
20260509094401 39 21 5.0 6.0 0.00 0.03 0.03 90 1010.5
20260509093859 39 3 4.0 5.0 0.00 0.03 0.03 90 1010.7
20260509093356 39 358 6.0 7.0 0.00 0.03 0.03 90 1010.5
20260509092855 39 331 4.0 5.0 0.00 0.03 0.03 90 1010.6
20260509092352 39 12 5.0 6.0 0.00 0.03 0.03 90 1010.5
20260509091850 38 338 5.0 6.0 0.00 0.03 0.03 90 1010.4
20260509091347 39 323 2.0 2.0 0.00 0.03 0.03 90 1010.3
20260509090844 39 326 2.0 2.0 0.00 0.03 0.03 90 1010.3
20260509090341 39 308 1.0 2.0 0.00 0.03 0.03 90 1010.5
20260509085839 39 296 2.0 2.0 0.00 0.03 0.03 90 1010.2
20260509085335 39 312 1.0 2.0 0.00 0.03 0.03 89 1010.3
20260509084832 40 339 3.0 3.0 0.00 0.03 0.03 89 1010.1
20260509084329 40 337 3.0 3.0 0.00 0.03 0.03 89 1009.9
20260509083827 40 344 3.0 3.0 0.00 0.03 0.03 89 1009.9
20260509083323 41 350 4.0 5.0 0.00 0.03 0.03 89 1009.8
20260509082820 41 349 3.0 3.0 0.00 0.03 0.03 89 1009.6
20260509082316 41 353 3.0 3.0 0.00 0.03 0.03 88 1009.6
20260509081814 41 353 4.0 5.0 0.00 0.03 0.03 88 1009.6
20260509081311 42 24 5.0 7.0 0.00 0.03 0.03 88 1009.4
20260509080809 42 8 3.0 3.0 0.00 0.03 0.03 88 1009.5
20260509080306 42 24 3.0 3.0 0.00 0.03 0.03 88 1009.6
20260509075805 42 8 3.0 3.0 0.00 0.03 0.03 88 1009.5
20260509075305 42 14 3.0 3.0 0.00 0.03 0.03 88 1009.6
20260509074759 43 33 2.0 2.0 0.00 0.03 0.03 88 1009.3
20260509074256 43 356 2.0 2.0 0.00 0.03 0.03 88 1009.4
20260509073752 44 27 2.0 2.0 0.00 0.03 0.03 88 1009.2
20260509073249 44 7 2.0 2.0 0.00 0.03 0.03 88 1009.2
20260509072745 45 350 6.0 6.0 0.00 0.03 0.03 88 1009.0
20260509072242 45 350 7.0 8.0 0.00 0.03 0.03 88 1008.9
20260509071739 45 359 7.0 9.0 0.00 0.03 0.03 89 1008.9
20260509071236 46 337 5.0 7.0 0.00 0.03 0.03 89 1008.9
20260509070733 46 314 6.0 7.0 0.00 0.03 0.03 89 1008.6
20260509070229 46 343 5.0 6.0 0.00 0.03 0.03 90 1008.5
20260509065726 46 329 5.0 7.0 0.00 0.03 0.03 90 1008.8
20260509065222 46 19 4.0 8.0 0.00 0.03 0.03 90 1008.6
20260509064718 46 346 4.0 6.0 0.00 0.03 0.03 91 1008.3
20260509064216 45 37 3.0 5.0 0.00 0.03 0.03 91 1008.4
20260509063714 45 344 3.0 5.0 0.00 0.03 0.03 91 1008.2
20260509063209 45 7 2.0 2.0 0.00 0.03 0.03 92 1008.0
20260509062707 45 323 2.0 3.0 0.00 0.03 0.03 92 1008.2
20260509062204 45 302 2.0 2.0 0.00 0.03 0.03 92 1008.3
20260509061701 45 324 1.0 1.0 0.00 0.03 0.03 92 1008.3
20260509061158 45 347 0.0 1.0 0.00 0.03 0.03 91 1008.1
20260509060656 45 13 1.0 1.0 0.00 0.03 0.03 91 1008.1
20260509060152 45 329 1.0 2.0 0.00 0.03 0.03 91 1008.2
20260509055647 46 278 1.0 1.0 0.00 0.03 0.03 91 1008.0
20260509055144 46 212 1.0 2.0 0.00 0.03 0.03 91 1008.1
20260509054640 46 288 3.0 3.0 0.00 0.03 0.03 91 1008.3
20260509054138 46 218 3.0 3.0 0.00 0.03 0.03 91 1007.6
20260509053636 46 251 1.0 1.0 0.07 0.03 0.03 91 1008.1
20260509053133 46 245 2.0 2.0 0.07 0.03 0.03 90 1008.0
20260509052631 46 239 2.0 2.0 0.05 0.02 0.02 90 1008.5
20260509052128 46 285 2.0 2.0 0.05 0.02 0.02 90 1008.3
20260509051626 46 308 3.0 3.0 0.07 0.01 0.01 89 1009.0
20260509051123 46 306 2.0 3.0 0.07 0.01 0.01 89 1008.8
20260509050620 46 351 1.0 1.0 0.07 0.01 0.01 89 1008.9
20260509050116 46 324 2.0 3.0 0.00 0.01 0.01 88 1008.9
20260509045614 47 346 1.0 2.0 0.05 0.01 0.01 87 1008.9
20260509045111 47 3 5.0 6.0 0.05 0.01 0.01 87 1009.2
20260509044608 47 358 5.0 6.0 0.00 0.00 0.00 85 1009.0
20260509044105 47 7 4.0 5.0 0.00 0.00 0.00 83 1009.2
20260509043601 48 35 4.0 5.0 0.00 0.00 0.00 81 1008.5
20260509043057 49 15 4.0 6.0 0.00 0.00 0.00 78 1008.5
20260509042553 49 35 7.0 9.0 0.00 0.00 0.00 75 1008.2
20260509042050 49 355 7.0 7.0 0.00 0.00 0.00 74 1008.2
20260509041547 49 21 5.0 6.0 0.00 0.00 0.00 74 1008.1
20260509041044 50 31 5.0 6.0 0.00 0.00 0.00 73 1008.3
20260509040542 50 27 7.0 11.0 0.00 0.00 0.00 71 1007.9
20260509040039 50 43 7.0 9.0 0.00 0.00 0.00 70 1007.8
20260509035536 50 51 9.0 11.0 0.00 0.00 0.00 70 1007.7
20260509035032 51 52 12.0 14.0 0.00 0.00 0.00 69 1007.5
20260509034531 51 44 8.0 10.0 0.00 0.00 0.00 68 1007.7
20260509034027 51 51 11.0 13.0 0.00 0.00 0.00 67 1007.6
20260509033524 51 27 12.0 14.0 0.00 0.00 0.00 66 1007.6
20260509033021 52 30 13.0 17.0 0.00 0.00 0.00 65 1007.5
20260509032519 53 1 15.0 18.0 0.00 0.00 0.00 63 1007.6
20260509032016 54 8 11.0 16.0 0.00 0.00 0.00 64 1006.9
20260509031513 56 19 14.0 17.0 0.00 0.00 0.00 62 1006.8
20260509031010 57 359 9.0 9.0 0.00 0.00 0.00 58 1006.5
20260509030508 57 16 10.0 13.0 0.00 0.00 0.00 56 1006.4
20260509030005 57 0 8.0 13.0 0.00 0.00 0.00 55 1006.2
20260509025500 58 326 9.0 11.0 0.00 0.00 0.00 54 1006.2
20260509024950 58 346 12.0 15.0 0.00 0.00 0.00 53 1005.9
20260509024447 59 317 10.0 14.0 0.00 0.00 0.00 52 1005.8
20260509023944 59 318 10.0 13.0 0.00 0.00 0.00 52 1005.5
20260509023441 58 3 11.0 16.0 0.00 0.00 0.00 53 1005.5
20260509022938 58 334 15.0 18.0 0.00 0.00 0.00 54 1005.2
20260509022435 59 358 13.0 15.0 0.00 0.00 0.00 53 1005.2
20260509021932 60 333 16.0 20.0 0.00 0.00 0.00 52 1005.3
20260509021429 62 353 15.0 18.0 0.00 0.00 0.00 47 1005.1
20260509020926 64 302 15.0 17.0 0.00 0.00 0.00 37 1004.5
20260509020424 65 279 9.0 13.0 0.00 0.00 0.00 38 1004.5
20260509015921 62 277 9.0 11.0 0.00 0.00 0.00 39 1004.6
20260509015420 62 298 5.0 6.0 0.00 0.00 0.00 42 1004.6
20260509014915 62 295 4.0 5.0 0.00 0.00 0.00 41 1004.1
20260509014407 62 301 2.0 3.0 0.00 0.00 0.00 42 1004.3
20260509013904 62 232 4.0 6.0 0.00 0.00 0.00 41 1004.0
20260509013401 62 245 3.0 3.0 0.00 0.00 0.00 41 1004.2
20260509012856 62 251 4.0 5.0 0.00 0.00 0.00 41 1004.1
20260509012353 62 187 3.0 3.0 0.00 0.00 0.00 42 1004.3
20260509011850 62 263 2.0 2.0 0.00 0.00 0.00 42 1004.3
20260509011348 63 286 2.0 2.0 0.00 0.00 0.00 40 1004.3
20260509010846 63 278 2.0 2.0 0.00 0.00 0.00 40 1004.2
20260509010343 63 299 4.0 5.0 0.00 0.00 0.00 39 1004.4
20260509005839 63 280 3.0 3.0 0.00 0.00 0.00 40 1004.4
20260509005338 63 292 3.0 3.0 0.00 0.00 0.00 40 1004.4
20260509004838 64 242 2.0 2.0 0.00 0.00 0.00 39 1004.6
20260509004334 64 297 0.0 2.0 0.00 0.00 0.00 39 1004.7
20260509003832 65 282 4.0 6.0 0.00 0.00 0.00 37 1005.0
20260509003330 66 287 5.0 7.0 0.00 0.00 0.00 36 1004.8
20260509002826 67 297 8.0 11.0 0.00 0.00 0.00 34 1004.9
20260509002324 67 258 5.0 6.0 0.00 0.00 0.00 35 1004.8
20260509001822 67 270 11.0 17.0 0.00 0.00 0.00 34 1005.0
20260509001317 68 263 11.0 13.0 0.00 0.00 0.00 32 1004.9
20260509000815 69 302 16.0 22.0 0.00 0.00 0.00 31 1004.8
20260509000313 68 303 15.0 18.0 0.00 0.00 0.00 32 1004.9
20260508235809 68 281 9.0 11.0 0.00 0.00 0.00 33 1005.2
20260508235307 68 295 8.0 10.0 0.00 0.00 0.00 32 1005.1
20260508234803 68 278 6.0 8.0 0.00 0.00 0.00 33 1005.2
20260508234259 68 282 8.0 9.0 0.00 0.00 0.00 32 1005.2
20260508233753 68 287 6.0 8.0 0.00 0.00 0.00 33 1005.6
20260508233251 68 293 10.0 10.0 0.00 0.00 0.00 32 1005.2
20260508232748 69 302 9.0 11.0 0.00 0.00 0.00 33 1005.5
20260508232244 68 268 8.0 9.0 0.00 0.00 0.00 33 1005.1
20260508231743 68 282 5.0 7.0 0.00 0.00 0.00 33 1005.7
20260508231239 67 289 5.0 7.0 0.00 0.00 0.00 34 1005.6
20260508230736 68 275 7.0 10.0 0.00 0.00 0.00 33 1005.8
20260508230232 68 268 7.0 9.0 0.00 0.00 0.00 33 1005.7
20260508225730 69 269 11.0 14.0 0.00 0.00 0.00 31 1006.0
20260508225226 69 273 8.0 9.0 0.00 0.00 0.00 33 1005.7
20260508224724 70 295 14.0 20.0 0.00 0.00 0.00 31 1006.0
20260508224221 71 330 9.0 11.0 0.00 0.00 0.00 30 1005.9
20260508223719 71 206 8.0 9.0 0.00 0.00 0.00 31 1006.1
20260508223216 70 278 8.0 9.0 0.00 0.00 0.00 33 1006.1
20260508222713 68 253 11.0 13.0 0.00 0.00 0.00 31 1006.3
20260508222211 69 308 11.0 13.0 0.00 0.00 0.00 32 1006.5
20260508221707 69 284 9.0 10.0 0.00 0.00 0.00 31 1006.3
20260508221203 71 277 8.0 10.0 0.00 0.00 0.00 31 1006.2
20260508220659 71 289 10.0 13.0 0.00 0.00 0.00 31 1006.5
20260508220156 70 297 11.0 14.0 0.00 0.00 0.00 30 1006.6
20260508215652 69 314 13.0 18.0 0.00 0.00 0.00 31 1006.8
20260508215149 69 303 7.0 9.0 0.00 0.00 0.00 32 1006.7
20260508214646 69 294 10.0 14.0 0.00 0.00 0.00 33 1007.0
20260508214143 69 322 12.0 14.0 0.00 0.00 0.00 33 1007.1
20260508213640 70 257 11.0 13.0 0.00 0.00 0.00 32 1007.0
20260508213136 70 313 8.0 10.0 0.00 0.00 0.00 33 1007.2
20260508212633 69 305 11.0 13.0 0.00 0.00 0.00 32 1007.1
20260508212129 70 286 6.0 8.0 0.00 0.00 0.00 36 1007.2
20260508211624 69 294 10.0 13.0 0.00 0.00 0.00 34 1007.5
20260508211121 69 289 12.0 16.0 0.00 0.00 0.00 34 1007.4
20260508210618 68 312 11.0 14.0 0.00 0.00 0.00 34 1007.7
20260508210115 70 322 11.0 13.0 0.00 0.00 0.00 33 1007.6
20260508205612 70 299 11.0 14.0 0.00 0.00 0.00 34 1007.6